Regional Weather Roundup
Issued by NWS

Home | Current Version | Previous Version | Text Only | Print | Product List | Glossary Off
Versions: 1 2 3 4 5 6 7 8 9 10 11 12 13 14 15 16 17 18 19 20 21 22 23 24 25 26 27 28 29 30 31 32 33 34 35 36 37 38 39 40 41 42 43 44 45 46 47 48 49 50

000
ASUS45 KSLC 281310
RWRUT

UTAH REGIONAL WEATHER ROUNDUP
NATIONAL WEATHER SERVICE SALT LAKE CITY UT
700 AM MDT THU AUG 28 2014

UTZ001>011-023>025-281400-

NORTHERN UTAH

CITY           SKY/WX    TMP DP  RH WIND       PRES   REMARKS
HILL AFB       CLEAR     56  47  71 E15       30.24S
LOGAN          CLEAR     50  48  93 CALM      30.24R
OGDEN          CLEAR     57  48  72 S8        30.22S
PROVO AIRPORT  PTCLDY    54  46  76 E6        30.27S
SALT LAKE CITY PTCLDY    59  52  77 SE7       30.21S
VERNAL         PTCLDY    54  52  93 W3        30.26R
WENDOVER       CLEAR     61  45  55 CALM      30.20S
HEBER CITY     FOG       46  46 100 CALM      30.34R VSB 3/4
WEST JORDAN    CLEAR     57  54  88 S7        30.24S

$$

UTZ012>022-026-027-281400-

SOUTHERN UTAH

CITY           SKY/WX    TMP DP  RH WIND       PRES   REMARKS
BRYCE CANYON   PTCLDY    37  35  92 W5        30.41S WCI  33
CEDAR CITY     CLEAR     49  44  83 CALM      30.29S
MILFORD        CLEAR     51  44  77 S7        30.26S
MOAB/CYNLANDS  PTCLDY    58  50  75 W3        30.21R
PRICE          CLEAR     49  43  80 NW3       30.29R
ST GEORGE      SUNNY     66  46  48 SE5       30.16R
KANAB            N/A     54  45  71 NE5       30.30R

$$

REGIONAL REPORTS     COLORADO/ARIZONA

CITY           SKY/WX    TMP DP  RH WIND       PRES   REMARKS
CRAIG, CO      CLOUDY    52  50  93 SW3       30.28S
GRAND JUNCTION CLOUDY    57  55  93 SE5       30.24S
RIFLE          CLOUDY    55  53  93 CALM      30.27R
MONTROSE       CLOUDY    54  50  86 SE5       30.31R
CORTEZ         PTCLDY    45  44  97 E5        30.30R
PAGE, AZ       CLEAR     63  46  54 CALM      30.21R
GRAND CANYON   CLEAR     41  39  93 NE3       30.36
KINGMAN        CLEAR     60  42  51 SW3       30.14R
FLAGSTAFF      CLEAR     44  42  93 CALM      30.37R

$$

REGIONAL REPORTS    NEVADA/IDAHO/WYOMING

CITY           SKY/WX    TMP DP  RH WIND       PRES   REMARKS
LAS VEGAS, NV  CLEAR     77  37  23 SW8       30.01R
ELY            CLEAR     43  39  86 S14       30.34R
ELKO           CLEAR     45  37  73 SE3       30.26R
POCATELLO, ID  PTCLDY    52  50  93 N10       30.20R
BURLEY         CLEAR     58  47  66 CALM      30.16R
EVANSTON, WY   PTCLDY    47  45  93 SW8       30.36R
ROCK SPRINGS   PTCLDY    47  45  93 W9        30.30R

$$


USA.gov is the U.S. government's official web portal to all federal, state and local government web resources and services.